Regional Weather Roundup
Issued by NWS

Home | Current Version | Previous Version | Text Only | Print | Product List | Glossary On
Versions: 1 2 3 4 5 6 7 8 9 10 11 12 13 14 15 16 17 18 19 20 21 22 23 24 25 26 27 28 29 30 31 32 33 34 35 36 37 38 39 40 41 42 43 44 45 46 47 48 49 50
000
ASUS43 KDTX 251110
RWRMI
MICHIGAN HOURLY REGIONAL WEATHER ROUNDUP
NATIONAL WEATHER SERVICE DETROIT/PONTIAC MI
700 AM EDT SAT OCT 25 2014

NOTE: "FAIR" INDICATES FEW OR NO CLOUDS BELOW 12,000 FEET WITH NO
SIGNIFICANT WEATHER AND/OR OBSTRUCTION TO VISIBILITY.

MIZ047>049-052>055-059>063-066>070-074>076-081>083-251200-
SOUTHEAST LOWER MICHIGAN

CITY           SKY/WX    TMP DP  RH WIND       PRES   REMARKS
ADRIAN         MOCLDY    48  46  93 W7        29.89S FOG
ALMA           MOCLDY    49  47  95 SW7       29.81F FOG
ANN ARBOR      CLOUDY    45  42  89 W5        29.86F FOG
BAD AXE        MOCLDY    49  49 100 SW7       29.78F
DETROIT CITY   CLOUDY    52  47  83 SW5       29.86F HAZE
DETROIT        CLOUDY    49  47  93 S6        29.87S FOG
FLINT          CLOUDY    54  47  77 SW9       29.84F
GROSSE ILE     CLOUDY    52  48  87 CALM      29.85F FOG
HILLSDALE      CLOUDY    53  52  96 SW6       29.88S
HOWELL         CLOUDY    51  49  92 SW6       29.84S

CITY           SKY/WX    TMP DP  RH WIND       PRES   REMARKS
JACKSON        CLOUDY    52  49  89 SW8       29.87S
LAMBERTVILLE   CLOUDY    52  48  87 SW3       29.89R FOG
LANSING        CLOUDY    53  48  83 SW9       29.85S
LAPEER         NOT AVBL
MASON          CLOUDY    53  48  85 SW6       29.85S
MONROE         CLOUDY    52  50  93 SW3       29.85F FOG
MT. CLEMENS    CLOUDY    49  49  99 SW5       29.83F
PONTIAC        MOCLDY    49  46  90 CALM      29.84F FOG
PORT HOPE        N/A     52  46  80 SW7       29.75F
PORT HURON     CLOUDY    48  46  93 SW3       29.84F FOG
TRI CITIES     MOCLDY    51  46  83 SW12      29.80F
YPSILANTI      CLOUDY    51  46  83 SW7       29.86F HAZE
$$
MIZ043>046-050>051-056>058-064>065-071>073-077>080-251200-
SOUTHWEST LOWER MICHIGAN

CITY           SKY/WX    TMP DP  RH WIND       PRES   REMARKS
BATTLE CREEK   CLOUDY    55  49  80 SW12      29.88R
BENTON HARBOR  PTCLDY    54  53  97 SW9       29.89S FOG
BIG RAPIDS     CLOUDY    53  53 100 W5        29.80S
COLDWATER      CLOUDY    55  52  90 SW9       29.89R
HOLLAND        PTCLDY    57  53  86 W12       29.86F
GRAND RAPIDS   MOCLDY    55  51  86 SW13      29.84F
KALAMAZOO      CLOUDY    57  51  80 W8        29.89S
MARSHALL       CLOUDY    52  49  89 SW7       29.87S
MUSKEGON       CLEAR     55  51  86 W9        29.84R
$$
MIZ016>042-251200-
NORTHERN LOWER MICHIGAN

CITY           SKY/WX    TMP DP  RH WIND       PRES   REMARKS
ALPENA         CLOUDY    53  48  83 SW12G18   29.68F
BEAVER ISLAND  PTCLDY    53  52  97 SW12      29.69F FOG
BELLAIRE       CLOUDY    55  50  86 SW3       29.74S
CADILLAC       CLOUDY    52  51  96 W9        29.76F
CHARLEVOIX     MOCLDY    54  53  95 SW10G18   29.74S FOG
FRANKFORT      CLOUDY    55  51  87 SW6       29.78R FOG
GAYLORD        CLOUDY    52  49  89 W16       29.72F FOG
GRAYLING       CLOUDY    54  52  94 W9        29.75S FOG
HARBOR SPRINGS CLOUDY    55  52  89 W8G17     29.70F FOG
HOUGHTON LAKE  CLOUDY    50  47  89 SW9       29.75F
MANISTEE       MOCLDY    54  50  87 W7        29.79F
OSCODA         CLOUDY    48  47  97 SW12      29.72F FOG
PELLSTON       CLOUDY    54  51  90 W12G21    29.69F
TRAVERSE CITY  MOCLDY    55  50  83 S6        29.74F
$$
MIZ007>008-015-251200-
EASTERN UPPER MICHIGAN

CITY           SKY/WX    TMP DP  RH WIND       PRES   REMARKS
KINROSS        CLOUDY    52  50  93 W13G18    29.63S
MACKINAC ISLAN MOCLDY    52  52  99 W15G30    29.65F FOG
NEWBERRY       CLEAR     49  47  93 W14G22    29.65R
S. S. MARIE    MOCLDY    52  48  86 W10       29.61S
$$
MIZ004>006-011>014-085-251200-
CENTRAL UPPER MICHIGAN

CITY           SKY/WX    TMP DP  RH WIND       PRES   REMARKS
MANISTIQUE     CLEAR     50  48  94 W8        29.68S
ESCANABA       CLEAR     48  45  87 W8        29.71S
MENOMINEE      CLEAR     54  48  82 W5        29.76R
SAWYER-GWINN   CLEAR     48  43  81 W6        29.69S
$$
MIZ001>003-009>011-084-251200-
WESTERN UPPER MICHIGAN

CITY           SKY/WX    TMP DP  RH WIND       PRES   REMARKS
IRON MOUNTAIN  CLEAR     52  44  74 W12       29.74R
HOUGHTON       CLEAR     54  34  46 W29G36    29.67R
COPPER HARBOR    N/A     56  35  45 NW15G28   29.63R
IRONWOOD       CLEAR     48  36  61 W12       29.78R
$$

ABBREVIATIONS USED IN REMARKS
   TC - TEMPERATURE IN CELSIUS
  WCI - WIND CHILL INDEX
   HX - HEAT INDEX
  VSB - VISIBILITY




USA.gov is the U.S. government's official web portal to all federal, state and local government web resources and services.